Flag for U.S.A. Weather past 2 weeks in West Covina, California, U.S.A.

Now
69 °F

Passing clouds.


Feels Like: 69 °F
Forecast: 64 / 88 °F
Wind: 5 mph from Southeast

Location: Fullerton Municipal Airport

Current Time: Sep 2, 2014 at 2:14:34 AM

Latest Report: Sep 2, 2014 at 1:53 AM


Visibility: 10 mi

Pressure: 29.82 "Hg

Humidity: 81%

Dew point: 63 °F

Location of West CovinaLocation

Historic Weather in West Covina — Graph

°F

West Covina temperature yesterday

Maximum temperature yesterday: 86 °F (at 11:53 AM)
Minimum temperature yesterday: 70 °F (at 4:53 AM)
Average temperature yesterday: 76 °F

Past Weeks' High & Low Weather Summary

 TemperatureHumidityPressure
High96 °F (Aug 28, 2:53 PM)90% (Aug 30, 5:53 AM)30.01 "Hg (Aug 30, 5:53 AM)
Low66 °F (Aug 25, 5:53 AM)18% (Aug 28, 5:53 PM)29.72 "Hg (Aug 30, 4:53 PM)
Average76 °F60%29.87 "Hg
* Reported Aug 18 12:53 AM — Sep 2 12:53 AM, West Covina, Weather by CustomWeather, © 2014

Note: Actual official high and low records may vary slightly from our data, if they occured in-between our weather recording intervals... More about our weather records

Advertising

West Covina weather history for previous 24 hours

 ConditionsComfort  
Time TempWeatherWind HumidityBarometerVisibility
12:53 AM
Sep 2
69 °FClear.3 mph81%29.82 "Hg10 mi
11:53 PM
Sep 1
70 °FClear.3 mph79%29.81 "Hg10 mi
10:53 PM71 °FClear.5 mph76%29.81 "Hg10 mi
9:53 PM71 °FClear.5 mph76%29.81 "Hg10 mi
8:53 PM72 °FClear.5 mph73%29.80 "Hg10 mi
7:53 PM73 °FSunny.5 mph69%29.78 "Hg10 mi
6:53 PM76 °FSunny.6 mph62%29.76 "Hg10 mi
5:53 PM80 °FSunny.7 mph54%29.75 "Hg10 mi
4:53 PM82 °FSunny.7 mph51%29.75 "Hg10 mi
3:53 PM85 °FSunny.5 mph48%29.75 "Hg10 mi
2:53 PM84 °FSunny.8 mph49%29.77 "Hg10 mi
1:53 PM84 °FSunny.10 mph48%29.78 "Hg10 mi
12:53 PM83 °FSunny.9 mph51%29.80 "Hg10 mi
11:53 AM86 °FSunny.3 mph46%29.82 "Hg10 mi
10:53 AM79 °FSunny.3 mph58%29.83 "Hg10 mi
9:53 AM76 °FSunny.3 mph67%29.83 "Hg9 mi
8:53 AM73 °FPartly sunny.3 mph74%29.82 "Hg9 mi
7:53 AM71 °FOvercast.No wind78%29.82 "Hg8 mi
6:53 AM70 °FPassing clouds.No wind81%29.81 "Hg8 mi
5:53 AM70 °FOvercast.No wind81%29.80 "Hg10 mi
4:53 AM70 °FClear.No wind81%29.79 "Hg10 mi
3:53 AM71 °FClear.No wind78%29.79 "Hg10 mi
2:53 AM72 °FOvercast.3 mph76%29.79 "Hg10 mi
Weather by CustomWeather, © 2014

See weather overviewHow to use our weather pages